�N����,����,�~����,�C��,���x,�C��,����,���ϕ���,�ő�u�ԕ���,�ő厞����,���˗�,�I�_���x,�n�����x,�ő啗���N��,DTYPE
"20/07/11","00:10",0.0,24.4,95.1,1001.5,46.1,0.3,1.1,353.9,0.00,23.6,25.1,"00:00:08",1
"20/07/11","00:20",0.0,24.5,95.1,1001.0,254.5,0.7,1.6,225.2,0.00,23.7,24.9,"00:14:56",1
"20/07/11","00:30",0.0,24.4,95.2,1001.2,325.8,0.6,1.4,347.3,0.00,23.6,25.0,"00:20:02",1
"20/07/11","00:40",0.0,24.4,95.2,1001.0,344.6,0.5,1.2,355.2,0.00,23.6,24.7,"00:30:08",1
"20/07/11","00:50",0.0,24.3,95.3,1001.0,266.9,0.2,0.8,289.6,0.00,23.5,24.7,"00:41:20",1
"20/07/11","01:00",0.0,24.3,95.3,1001.2,299.8,0.5,1.2,304.4,0.00,23.5,24.9,"00:56:00",1
"20/07/11","01:10",0.0,24.4,95.4,1001.2,331.9,0.6,1.2,5.3,0.00,23.7,24.8,"01:00:56",1
"20/07/11","01:20",0.0,24.4,95.4,1001.2,343.6,0.8,1.7,344.0,0.00,23.7,24.5,"01:18:08",1
"20/07/11","01:30",0.0,24.4,95.4,1001.0,335.5,0.8,2.5,4.0,0.00,23.7,24.7,"01:24:08",1
"20/07/11","01:40",0.0,24.4,95.4,1000.8,295.1,0.6,1.2,347.6,0.00,23.7,24.7,"01:38:24",1
"20/07/11","01:50",0.0,24.4,95.5,1000.8,236.8,0.5,0.9,180.6,0.00,23.7,24.9,"01:46:24",1
"20/07/11","02:00",0.0,24.4,95.5,1001.0,297.1,0.5,1.0,324.4,0.00,23.7,24.7,"01:53:28",1
"20/07/11","02:10",0.0,24.4,95.5,1001.0,268.0,0.1,0.6,236.6,0.00,23.7,24.6,"02:08:48",1
"20/07/11","02:20",0.0,24.5,95.6,1000.8,0.6,0.7,1.4,1.3,0.00,23.8,24.6,"02:18:16",1
"20/07/11","02:30",0.0,24.4,95.6,1001.5,300.2,0.7,1.2,339.3,0.00,23.7,24.6,"02:23:20",1
"20/07/11","02:40",0.2,24.4,95.6,1000.8,157.4,0.3,1.0,51.0,0.00,23.7,24.7,"02:32:56",1
"20/07/11","02:50",0.0,24.4,95.7,1000.8,279.3,0.5,0.9,232.8,0.00,23.7,24.8,"02:43:12",1
"20/07/11","03:00",0.0,24.4,95.7,1000.5,38.1,0.5,1.2,351.3,0.00,23.7,24.5,"02:59:12",1
"20/07/11","03:10",0.0,24.4,95.7,1000.5,255.8,0.2,1.2,7.4,0.00,23.7,24.7,"03:00:32",1
"20/07/11","03:20",0.0,24.4,95.7,1000.3,209.6,0.3,1.0,122.6,0.00,23.7,24.7,"03:10:32",1
"20/07/11","03:30",0.0,24.4,95.8,1000.3,329.1,0.6,1.1,344.9,0.00,23.7,24.4,"03:24:08",1
"20/07/11","03:40",0.0,24.2,95.8,1000.3,245.3,0.3,1.3,232.9,0.00,23.5,24.6,"03:34:08",1
"20/07/11","03:50",0.0,24.2,95.9,1000.3,303.5,0.3,0.9,13.4,0.00,23.5,24.5,"03:46:16",1
"20/07/11","04:00",0.0,24.2,95.9,1000.5,330.0,0.3,1.1,2.5,0.00,23.5,24.3,"03:54:16",1
"20/07/11","04:10",0.0,24.1,95.9,1000.8,269.8,0.2,0.9,234.2,0.00,23.4,24.6,"04:04:40",1
"20/07/11","04:20",0.0,24.1,96.0,1000.3,12.3,0.3,0.8,358.5,0.00,23.5,24.4,"04:18:56",1
"20/07/11","04:30",0.0,24.1,96.0,1000.3,287.8,0.5,0.8,350.8,0.00,23.5,24.6,"04:22:24",1
"20/07/11","04:40",0.0,24.2,96.0,1000.5,261.9,0.6,1.1,252.0,0.00,23.6,24.4,"04:30:56",1
"20/07/11","04:50",0.0,24.2,96.0,1000.5,279.6,0.5,1.2,6.2,0.00,23.6,24.4,"04:49:20",1
"20/07/11","05:00",0.0,24.2,96.0,1000.3,131.4,0.6,1.3,125.0,0.00,23.6,24.6,"04:53:52",1
"20/07/11","05:10",0.0,24.2,96.0,1000.3,326.9,0.5,1.2,45.2,0.00,23.6,24.2,"05:03:04",1
"20/07/11","05:20",0.0,24.2,96.1,1000.3,328.2,0.5,1.0,354.7,0.00,23.6,24.4,"05:19:12",1
"20/07/11","05:30",0.0,24.2,96.1,1000.3,296.4,0.6,1.1,235.4,0.00,23.6,24.6,"05:27:44",1
"20/07/11","05:40",0.0,24.2,96.1,1000.8,244.9,0.7,1.2,226.0,0.00,23.6,24.4,"05:36:56",1
"20/07/11","05:50",0.2,24.2,96.2,1001.0,275.1,0.8,2.1,228.4,0.00,23.6,24.5,"05:42:08",1
"20/07/11","06:00",0.0,24.3,96.2,1001.5,6.1,1.0,1.8,122.6,0.00,23.7,24.5,"05:56:00",1
"20/07/11","06:10",0.0,24.3,96.2,1001.2,335.5,1.0,3.2,60.4,0.00,23.7,24.5,"06:04:00",1
"20/07/11","06:20",0.2,24.4,96.2,1001.5,18.4,0.7,1.7,20.6,0.00,23.8,24.4,"06:10:40",1
"20/07/11","06:30",0.2,24.4,96.1,1000.8,275.2,0.7,2.2,336.6,0.00,23.8,24.4,"06:28:40",1
"20/07/11","06:40",0.6,24.5,96.3,1001.0,347.2,1.0,2.0,327.3,0.00,23.9,24.6,"06:33:36",1
"20/07/11","06:50",0.8,24.6,96.3,1001.2,323.9,0.8,3.5,271.5,0.00,24.0,24.3,"06:42:00",1
"20/07/11","07:00",0.2,24.6,96.2,1001.2,39.3,0.7,1.4,72.5,0.00,24.0,24.5,"06:54:16",1
"20/07/11","07:10",0.4,24.5,96.2,1001.5,26.8,0.8,1.6,66.9,0.00,23.9,24.4,"07:09:52",1
"20/07/11","07:20",2.0,24.5,96.2,1001.2,112.5,1.2,3.6,184.7,0.00,23.9,24.4,"07:16:24",1
"20/07/11","07:30",1.2,24.6,96.2,1001.5,107.9,0.7,1.6,108.1,0.00,24.0,24.5,"07:22:08",1
"20/07/11","07:40",2.6,24.4,96.2,1001.5,35.4,0.8,1.9,37.4,0.00,23.8,24.2,"07:32:18",1
"20/07/11","07:50",0.4,24.4,96.3,1001.2,77.0,0.8,1.8,98.7,0.00,23.8,24.3,"07:47:38",1
"20/07/11","08:00",0.2,24.4,96.3,1001.2,66.3,0.7,2.0,7.4,0.00,23.8,24.4,"07:54:08",1
"20/07/11","08:10",0.0,24.4,96.3,1001.5,68.8,0.6,1.6,1.9,0.00,23.8,24.4,"08:07:04",1
"20/07/11","08:20",8.0,24.4,96.3,1001.5,179.4,1.2,4.2,205.7,0.00,23.8,24.4,"08:18:48",1
"20/07/11","08:30",2.6,24.5,96.3,1001.5,129.0,2.0,3.4,168.2,0.00,23.9,24.5,"08:23:06",1
"20/07/11","08:40",0.2,24.5,96.3,1001.7,141.5,1.1,2.9,114.7,0.00,23.9,24.4,"08:31:44",1
"20/07/11","08:50",1.6,24.5,96.3,1001.2,156.7,0.8,2.2,122.8,0.01,23.9,24.4,"08:41:36",1
"20/07/11","09:00",3.8,24.5,96.3,1001.2,6.9,0.7,1.8,348.6,0.00,23.9,24.5,"08:59:04",1
"20/07/11","09:10",0.6,24.6,96.3,1001.5,21.3,0.5,0.9,107.9,0.00,24.0,24.5,"09:02:48",1
"20/07/11","09:20",0.6,24.6,96.3,1001.2,8.8,1.0,2.2,27.4,0.00,24.0,24.5,"09:19:12",1
"20/07/11","09:30",0.2,24.9,96.4,1001.2,323.8,0.7,1.8,245.3,0.05,24.3,24.5,"09:20:24",1
"20/07/11","09:40",0.0,25.0,96.3,1001.2,340.1,0.6,1.4,3.9,0.04,24.4,24.3,"09:31:28",1
"20/07/11","09:50",0.0,25.3,96.2,1001.0,297.4,0.1,0.6,78.4,0.05,24.7,24.6,"09:48:52",1
"20/07/11","10:00",0.6,25.2,96.2,1001.0,139.0,0.7,1.6,134.7,0.02,24.6,24.7,"09:58:08",1
"20/07/11","10:10",0.4,25.2,96.3,1000.3,128.6,0.8,1.8,117.7,0.07,24.6,24.3,"10:06:24",1
"20/07/11","10:20",0.0,25.6,96.4,1000.8,112.6,1.0,2.1,116.1,0.15,25.0,24.2,"10:12:52",1
"20/07/11","10:30",0.0,26.1,96.2,1000.8,74.2,0.5,1.3,91.0,0.16,25.5,24.4,"10:22:24",1
"20/07/11","10:40",0.0,26.1,96.1,1000.5,90.6,0.6,1.3,132.4,0.09,25.5,24.6,"10:37:44",1
"20/07/11","10:50",0.0,26.0,95.8,1000.5,166.1,1.1,2.4,187.5,0.13,25.3,24.5,"10:49:12",1
"20/07/11","11:00",0.0,25.8,96.0,1000.8,209.7,1.7,5.1,219.8,0.12,25.2,24.7,"10:58:16",1
"20/07/11","11:10",0.0,25.6,95.5,1000.5,200.5,1.5,3.5,217.3,0.12,24.9,24.6,"11:09:28",1
"20/07/11","11:20",0.0,25.9,95.2,1000.8,204.0,2.1,4.0,221.8,0.24,25.1,24.6,"11:15:20",1
"20/07/11","11:30",0.0,26.3,95.3,1000.3,195.8,2.3,4.2,192.0,0.28,25.5,24.8,"11:24:08",1
"20/07/11","11:40",0.2,26.5,94.6,999.8,184.5,2.1,3.5,191.6,0.29,25.6,25.0,"11:34:48",1
"20/07/11","11:50",0.0,27.1,94.1,1000.0,201.7,2.1,3.7,215.7,0.33,26.1,25.1,"11:41:52",1
"20/07/11","12:00",0.0,27.0,93.1,999.6,197.0,2.1,5.0,209.5,0.33,25.8,25.2,"11:58:24",1
"20/07/11","12:10",0.0,27.4,92.0,1000.0,212.8,2.3,4.7,204.7,0.35,26.0,25.5,"12:02:24",1
"20/07/11","12:20",0.0,27.9,90.5,1000.3,217.6,2.1,3.7,196.6,0.32,26.2,25.4,"12:10:48",1
"20/07/11","12:30",0.0,27.9,88.9,1000.8,190.4,2.5,4.5,164.6,0.29,25.9,25.5,"12:24:08",1
"20/07/11","12:40",0.0,28.7,87.1,1000.5,205.1,2.3,4.8,214.8,0.45,26.4,25.5,"12:30:16",1
"20/07/11","12:50",0.0,30.3,84.0,1000.8,201.8,1.2,2.8,217.6,0.54,27.3,25.6,"12:41:44",1
"20/07/11","13:00",0.0,30.2,79.4,1001.5,201.2,1.7,4.1,196.0,0.48,26.3,25.8,"12:55:04",1
"20/07/11","13:10",0.0,30.3,77.3,1001.2,216.4,1.5,3.2,218.8,0.38,25.9,25.9,"13:08:48",1
"20/07/11","13:20",0.0,29.9,76.5,1000.8,258.6,1.6,3.1,229.9,0.27,25.4,26.2,"13:14:00",1
"20/07/11","13:30",0.0,29.6,76.4,1000.3,240.3,2.1,4.0,227.9,0.34,25.0,25.9,"13:20:02",1
"20/07/11","13:40",0.0,29.2,77.5,1000.0,216.1,1.8,3.9,207.9,0.19,24.9,26.4,"13:30:16",1
"20/07/11","13:50",0.0,28.9,77.8,1000.0,225.8,1.7,3.7,229.6,0.14,24.7,26.3,"13:44:08",1
"20/07/11","14:00",0.0,29.1,79.0,999.8,241.0,1.6,5.7,219.7,0.20,25.1,26.5,"13:51:12",1
"20/07/11","14:10",0.0,29.2,77.9,999.8,258.5,1.5,2.7,299.3,0.27,25.0,26.6,"14:05:44",1
"20/07/11","14:20",0.0,29.1,78.1,999.3,250.1,1.3,2.9,229.2,0.19,24.9,26.6,"14:10:40",1
"20/07/11","14:30",0.0,28.6,78.5,999.6,257.1,1.7,3.4,289.9,0.11,24.5,26.5,"14:26:48",1
"20/07/11","14:40",0.0,28.4,79.7,998.9,268.8,1.5,3.6,242.3,0.13,24.6,26.7,"14:32:00",1
"20/07/11","14:50",0.0,27.9,81.0,998.9,263.7,1.6,3.3,303.2,0.09,24.4,26.5,"14:48:48",1
"20/07/11","15:00",0.0,27.8,82.2,998.6,277.5,1.0,2.4,233.3,0.11,24.5,26.8,"14:58:48",1
"20/07/11","15:10",0.0,27.6,83.5,998.6,325.1,1.6,3.5,354.5,0.11,24.6,26.8,"15:09:12",1
"20/07/11","15:20",0.0,27.4,84.6,998.9,297.2,1.3,2.7,292.8,0.16,24.6,26.7,"15:14:00",1
"20/07/11","15:30",0.0,27.3,85.0,998.9,324.0,1.6,3.4,331.1,0.14,24.6,26.7,"15:21:12",1
"20/07/11","15:40",0.0,27.1,85.7,998.9,332.3,1.6,3.4,339.4,0.06,24.5,26.8,"15:30:32",1
"20/07/11","15:50",0.0,27.1,86.0,999.1,324.3,1.3,2.5,356.8,0.04,24.6,26.6,"15:43:28",1
"20/07/11","16:00",0.0,26.9,86.5,999.1,325.0,1.2,2.8,343.1,0.01,24.5,26.6,"15:56:24",1
"20/07/11","16:10",0.0,27.0,86.8,998.9,315.6,0.8,2.6,336.0,0.04,24.7,26.8,"16:09:20",1
"20/07/11","16:20",0.0,26.8,87.1,999.6,327.4,1.5,3.4,340.5,0.03,24.5,26.5,"16:13:52",1
"20/07/11","16:30",0.0,26.8,87.4,999.1,319.5,1.2,2.7,336.7,0.05,24.6,26.7,"16:28:40",1
"20/07/11","16:40",0.0,26.6,87.6,999.1,322.9,1.6,3.1,335.0,0.03,24.4,26.6,"16:37:52",1
"20/07/11","16:50",0.0,26.6,87.8,999.1,307.3,1.5,3.4,331.1,0.01,24.4,26.6,"16:42:24",1
"20/07/11","17:00",0.0,26.3,88.0,999.3,323.8,2.2,3.9,331.9,0.00,24.2,26.6,"16:57:36",1
"20/07/11","17:10",0.8,26.3,88.2,999.1,340.1,2.1,3.9,341.1,0.00,24.2,26.2,"17:01:12",1
"20/07/11","17:20",0.4,26.0,88.8,999.1,334.6,1.1,2.7,346.5,0.00,24.0,26.2,"17:10:40",1
"20/07/11","17:30",0.4,25.8,89.2,999.1,299.3,0.7,1.7,315.9,0.00,23.9,26.4,"17:21:44",1
"20/07/11","17:40",0.0,25.9,89.8,999.3,331.2,1.0,2.4,329.4,0.01,24.1,26.2,"17:34:24",1
"20/07/11","17:50",0.0,25.9,90.1,999.1,308.4,0.7,1.8,346.3,0.03,24.2,26.2,"17:41:12",1
"20/07/11","18:00",0.0,26.1,90.4,998.9,341.6,0.6,1.7,329.9,0.04,24.4,26.2,"17:59:20",1
"20/07/11","18:10",0.0,25.9,90.7,998.4,328.1,1.1,2.5,338.7,0.02,24.3,26.1,"18:08:00",1
"20/07/11","18:20",0.0,25.8,90.9,999.1,329.2,1.1,2.8,331.9,0.01,24.2,26.2,"18:12:16",1
"20/07/11","18:30",0.0,25.8,91.1,999.3,219.2,1.2,2.9,215.0,0.00,24.3,25.9,"18:26:08",1
"20/07/11","18:40",0.0,25.7,91.3,999.6,235.4,1.0,2.2,231.8,0.00,24.2,26.0,"18:30:32",1
"20/07/11","18:50",0.0,25.7,91.5,999.8,294.0,0.6,1.4,315.6,0.00,24.3,26.1,"18:43:44",1
"20/07/11","19:00",0.0,25.6,91.7,999.8,253.6,0.8,1.7,223.5,0.00,24.2,26.1,"18:52:32",1
"20/07/11","19:10",0.0,25.6,91.8,1000.0,334.5,1.0,2.2,334.5,0.00,24.2,26.0,"19:01:20",1
"20/07/11","19:20",0.0,25.5,92.0,999.8,315.9,0.7,1.7,331.8,0.00,24.1,25.8,"19:10:16",1
"20/07/11","19:30",0.0,25.3,92.2,1000.0,334.3,0.8,1.4,347.6,0.00,24.0,25.8,"19:29:28",1
"20/07/11","19:40",0.0,25.2,92.3,1000.0,341.9,0.6,1.4,347.6,0.00,23.9,25.8,"19:32:40",1
"20/07/11","19:50",0.0,25.1,92.5,1000.3,319.6,0.6,1.3,337.0,0.00,23.8,25.9,"19:44:16",1
"20/07/11","20:00",0.0,25.0,92.6,1000.8,302.4,0.5,1.2,342.3,0.00,23.8,25.7,"19:50:40",1
"20/07/11","20:10",0.0,25.0,92.8,1000.5,5.9,0.5,1.2,358.0,0.00,23.8,25.5,"20:04:56",1
"20/07/11","20:20",0.0,24.9,92.8,1000.3,279.3,0.2,0.9,332.7,0.00,23.7,25.7,"20:10:48",1
"20/07/11","20:30",0.0,24.8,92.9,1000.0,281.9,0.3,1.0,242.6,0.00,23.6,25.5,"20:22:48",1
"20/07/11","20:40",0.0,24.7,93.0,1000.0,322.6,0.6,1.3,342.2,0.00,23.5,25.6,"20:36:00",1
"20/07/11","20:50",0.0,24.7,93.1,1000.0,129.1,0.3,1.0,120.5,0.00,23.5,25.7,"20:43:04",1
"20/07/11","21:00",0.0,24.8,93.3,1000.3,236.3,0.5,1.2,225.6,0.00,23.7,25.4,"20:54:48",1
"20/07/11","21:10",0.0,24.7,93.4,1000.5,283.8,0.5,1.0,331.2,0.00,23.6,25.4,"21:05:32",1
"20/07/11","21:20",0.0,24.8,93.4,1000.8,10.8,0.8,1.7,340.3,0.00,23.7,25.3,"21:14:56",1
"20/07/11","21:30",0.0,24.9,93.5,1000.8,96.8,0.7,1.6,131.7,0.00,23.8,25.6,"21:25:04",1
"20/07/11","21:40",0.0,25.0,93.6,1000.5,84.5,0.5,1.7,140.5,0.00,23.9,25.4,"21:31:12",1
"20/07/11","21:50",0.0,25.0,93.6,1000.5,326.4,0.6,1.3,343.1,0.00,23.9,25.4,"21:44:32",1
"20/07/11","22:00",0.0,25.0,93.7,1000.5,325.3,0.8,1.2,313.5,0.00,24.0,25.4,"21:53:04",1
"20/07/11","22:10",0.0,24.9,93.7,1000.5,327.8,0.7,1.6,320.3,0.00,23.9,25.3,"22:05:28",1
"20/07/11","22:20",0.0,24.9,93.8,1000.8,281.8,0.2,0.5,257.3,0.00,23.9,25.1,"22:10:08",1
"20/07/11","22:30",0.0,24.8,93.9,1000.8,317.2,0.6,1.1,328.8,0.00,23.8,25.2,"22:26:16",1
"20/07/11","22:40",0.0,24.8,94.0,1000.5,290.9,0.3,0.9,319.4,0.00,23.8,25.3,"22:30:16",1
"20/07/11","22:50",0.0,24.8,94.0,1001.0,285.7,0.5,1.2,342.0,0.00,23.8,25.3,"22:47:36",1
"20/07/11","23:00",0.0,24.8,94.1,1001.0,312.8,1.0,1.7,318.0,0.00,23.8,25.2,"22:52:48",1
"20/07/11","23:10",0.0,24.7,94.1,1000.8,314.9,0.6,1.3,312.8,0.00,23.7,25.0,"23:00:32",1
"20/07/11","23:20",0.0,24.7,94.2,1001.0,300.4,0.8,1.2,324.4,0.00,23.7,25.2,"23:16:08",1
"20/07/11","23:30",0.0,24.6,94.2,1001.2,323.6,1.1,1.6,343.3,0.00,23.6,25.1,"23:25:12",1
"20/07/11","23:40",0.0,24.6,94.3,1001.0,335.8,0.8,1.4,347.0,0.00,23.7,25.2,"23:35:52",1
"20/07/11","23:50",0.0,24.5,94.4,1001.2,280.1,0.8,1.7,330.7,0.00,23.6,25.2,"23:42:48",1
"20/07/11","24:00",0.0,24.4,94.4,1001.2,300.7,0.8,1.2,319.7,0.00,23.5,25.1,"23:56:48",1
